This demonstration page uses our WeatherBlox Daily Observations layout. Learn more.

Left ArrowRight Arrow

Hourly Observations for June 21, 2021

Temp ( °F °C ) Dew Point ( °F °C ) Humidity (%) Winds ( mph kmh ) Pressure ( in mb ) Visibility ( mi km ) Precip ( " mm )
12:53 am 00:53 Clear 74 23.3 70 21.1 88 88 SW 6 9 29.88 1012 10 16 0.00 0.00
1:53 am 01:53 Clear 73 22.8 70 21.1 90 90 SW 5 7 29.86 1011 10 16 0.00 0.00
2:53 am 02:53 Clear 73 22.8 70 21.1 90 90 SSW 3 6 29.86 1011 10 16 0.00 0.00
3:53 am 03:53 Clear 72 22.2 70 21.1 94 94 Calm 29.88 1012 10 16 0.00 0.00
4:23 am 04:23 Mostly Cloudy 72 22.2 70 21.1 94 94 SW 3 6 29.89 1012 10 16 0.00 0.00
4:53 am 04:53 Cloudy 72 22.2 71 21.7 97 97 SW 6 9 29.91 1013 10 16 0.00 0.00
5:53 am 05:53 Cloudy 74 23.3 71 21.7 91 91 S 6 9 29.92 1013 10 16 0.00 0.00
6:24 am 06:24 Cloudy 74 23.3 71 21.7 91 91 SSW 5 7 29.93 1013 10 16 0.00 0.00
6:53 am 06:53 Cloudy 75 23.9 72 22.2 90 90 SSW 5 7 29.93 1014 10 16 0.00 0.00
7:48 am 07:48 Cloudy 75 24 72 22 89 89 SSW 7 11 29.94 1014 10 16 0.00 0.00
7:53 am 07:53 Cloudy 75 23.9 72 22.2 90 90 SSW 5 7 29.94 1014 10 16 0.00 0.00
8:46 am 08:46 Partly Cloudy 78 25.6 72 22.2 82 82 SW 5 7 29.93 1014 10 16 0.00 0.00
8:53 am 08:53 Mostly Cloudy 78 25.6 73 22.8 85 85 WSW 6 9 29.94 1014 10 16 0.00 0.00
9:04 am 09:04 Mostly Cloudy 78 25.6 72 22.2 82 82 SW 7 11 29.94 1014 10 16 0.00 0.00
9:27 am 09:27 Cloudy 78 25.6 72 22.2 82 82 SSW 7 11 29.94 1014 10 16 0.00 0.00
9:53 am 09:53 Cloudy 79 26.1 72 22.2 79 79 SSW 8 13 29.94 1014 10 16 0.00 0.00
10:53 am 10:53 Mostly Cloudy 81 27.2 73 22.8 77 77 WSW 6 9 29.95 1014 10 16 0.00 0.00
11:53 am 11:53 Partly Cloudy 84 28.9 73 22.8 70 70 VRB 5 7 29.95 1014 10 16 0.00 0.00
12:53 pm 12:53 Partly Cloudy 85 29.4 70 21.1 61 61 W 14 22 29.91 1013 10 16 0.00 0.00
1:53 pm 13:53 Partly Cloudy 87 30.6 70 21.1 57 57 VRB 7 11 29.87 1012 10 16 0.00 0.00
2:53 pm 14:53 Mostly Cloudy 86 30 73 22.8 65 65 SSW 13 20 29.84 1010 10 16 0.00 0.00
3:53 pm 15:53 Mostly Cloudy 85 29.4 72 22.2 65 65 SSW 10 17 29.85 1011 10 16 0.00 0.00
4:53 pm 16:53 Mostly Cloudy 85 29.4 71 21.7 63 63 SSW 12 19 29.85 1011 10 16 0.00 0.00
5:53 pm 17:53 Partly Cloudy 80 26.7 69 20.6 69 69 WSW 17 28 29.88 1012 10 16 0.00 0.00
6:53 pm 18:53 Mostly Cloudy 78 25.6 69 20.6 74 74 WSW 7 11 29.88 1012 10 16 0.00 0.00
7:53 pm 19:53 Mostly Sunny 78 25.6 69 20.6 74 74 SW 7 11 29.88 1012 10 16 0.00 0.00
8:53 pm 20:53 Mostly Cloudy 77 25 70 21.1 79 79 WSW 9 15 29.90 1012 10 16 0.00 0.00
9:36 pm 21:36 Mostly Cloudy with Thunderstorms 74 23.3 72 22.2 94 94 SW 8 13 29.91 1013 5 8 0.00 0.00
9:53 pm 21:53 Partly Cloudy with Light Rain 73 22.8 71 21.7 94 94 SSW 6 9 29.90 1013 10 16 0.00 0.00
10:53 pm 22:53 Cloudy 72 22.2 70 21.1 94 94 SW 6 9 29.90 1013 10 16 0.00 0.00
11:53 pm 23:53 Clear 72 22.2 70 21.1 94 94 SSW 6 9 29.90 1012 10 16 0.00 0.00

Powered by AerisWeather